Showing default

CHINASAT-3A, 60179

Orbit data source: Space-Track

CHINASAT-3A, 60179 is a payload satellite owned by PLA SSF (CN) in GEO that was launched on Sat, 29 Jun 2024 UTC via a CHANG ZHENG 7A launch vehicle from the Wenchang Satellite Launch Center (WSC). Payload-class satellites include a variety of spacecraft equipped with specific instruments for various scientific and technological missions. These include communications satellites like Starlink; space stations such as the ISS; scientific satellites like the Hubble; Earth observation satellites from companies like Planet Labs, Umbra, and HawkEye 360; GPS; miniature CubeSats for education and research; and military/defense satellites.

Not visible in the next 10 days
Identifier
60179, 2024-122A
Orbit
GEO
Country
Flag of CNCN / PRC
Related business
Manufacturer
SISE
Mission
Operational Defense Communications
Bus & Motor
FY-4?, LAE
Mass
~5,000 kg wet, ~2,500 kg dry
Launch date (UTC)
2024-06-29 (2 years ago)
Launch vehicle
CHANG ZHENG 7A
Launch site
Wenchang Satellite Launch Center (WSC)
Object type
Payload
Rocket body
Debris
Shape & HBR
Box + 2 Pan, 15.0 m
Radar Cross Section
34.063 m²

Expand to show TLE details & history
Last TLE update: 5 hours ago

TLE from 5 hours ago
0 CHINASAT-3A
1 60179U 24122A   26208.04489524 -.00000309  00000-0  00000+0 0  9990
2 60179   0.0234 139.1838 0001975  27.8974 255.3932  1.00273299  7702
Epoch: 2026-07-27T01:04Z
TLE epoch observation values (Epoch: 2026-07-27T01:04:38.948Z)
Latitude
-0.01457°
Longitude
101.56709°
Altitude
35,787.719 km
Speed
3.075 km/s
True Right ascension
04h 09m 51s
True Declination
0° 00' 52"
Sunlit
Object was in daylight at epoch
Visualization orbit readout
Latitude
Unknown
Longitude
Unknown
Altitude
Unknown
Speed
Unknown
Apparent Right ascension
Unknown
Apparent Declination
Unknown
Sunlit
N/A
Visualization observer readout
Local Sidereal Time
19:06:31
Azimuth
Unknown
Elevation
Unknown
Doppler factor
Unknown
Orbital elements
Apogee altitude
35,795.569 km
Perigee altitude
35,778.913 km
Semi-major axis
42,165.378 km
Eccentricity
0.0002
Inclination
0.0234°
RAAN
139.1838°
Arg. of periapsis
27.8974°
True anomaly
255.3713°
Mean anomaly
255.3932°
Eccentric anomaly
255.38225°
Mean motion
0.25067 °/min
Orbital period
1,436.13 mins
BSTAR
0
Loading maneuver chart data...
Computing Atmospheric mass density...
Loading historical data...
Loading historical data...
Loading historical data...
Loading historical data...
Loading historical data...
Loading historical data...
Loading historical data...
Other satellites on launch #122 in the year 2024 (2024-06-29 UTC)

Documentation

Showing up to 5 results
|